Time,TemperatureF,DewpointF,PressureIn,WindDirection,WindDirectionDegrees,WindSpeedMPH,WindSpeedGustMPH,Humidity,HourlyPrecipIn,Conditions,Clouds,dailyrainin,SoftwareType,DateUTC
2013-01-27 00:03:00,21.0,17.0,30.47,SW,219,0.0,0.0,84,0.00,,,0.00,,2013-01-27 05:03:00,
2013-01-27 00:12:00,21.0,17.0,30.47,SW,219,0.0,0.0,84,0.00,,,0.00,,2013-01-27 05:12:00,
2013-01-27 00:22:00,20.0,16.0,30.47,SW,219,0.0,0.0,85,0.00,,,0.00,,2013-01-27 05:22:00,
2013-01-27 00:32:00,20.0,16.0,30.47,SW,219,0.0,0.0,86,0.00,,,0.00,,2013-01-27 05:32:00,
2013-01-27 00:42:00,20.0,16.0,30.47,SW,219,0.0,0.0,86,0.00,,,0.00,,2013-01-27 05:42:00,
2013-01-27 00:52:00,19.0,16.0,30.47,SW,219,0.0,0.0,87,0.00,,,0.00,,2013-01-27 05:52:00,
2013-01-27 01:02:00,19.0,16.0,30.47,SW,219,0.0,0.0,87,0.00,,,0.00,,2013-01-27 06:02:00,
2013-01-27 01:11:00,19.0,16.0,30.47,SW,219,0.0,0.0,87,0.00,,,0.00,,2013-01-27 06:11:00,
2013-01-27 01:21:00,19.0,16.0,30.47,SW,219,0.0,0.0,87,0.00,,,0.00,,2013-01-27 06:21:00,
2013-01-27 01:32:00,19.0,16.0,30.48,SW,219,0.0,0.0,88,0.00,,,0.00,,2013-01-27 06:32:00,
2013-01-27 01:42:00,19.0,16.0,30.48,SW,219,0.0,0.0,88,0.00,,,0.00,,2013-01-27 06:42:00,
2013-01-27 01:52:00,18.0,15.0,30.49,SW,219,0.0,0.0,88,0.00,,,0.00,,2013-01-27 06:52:00,
2013-01-27 02:01:00,18.0,15.0,30.49,SW,219,0.0,0.0,88,0.00,,,0.00,,2013-01-27 07:01:00,
2013-01-27 02:14:00,18.0,15.0,30.49,SW,219,0.0,0.0,88,0.00,,,0.00,,2013-01-27 07:14:00,
2013-01-27 02:21:00,18.0,15.0,30.50,SW,219,0.0,0.0,89,0.00,,,0.00,,2013-01-27 07:21:00,
2013-01-27 02:32:00,18.0,15.0,30.50,SW,219,0.0,0.0,89,0.00,,,0.00,,2013-01-27 07:32:00,
2013-01-27 02:42:00,18.0,15.0,30.50,SW,219,0.0,0.0,89,0.00,,,0.00,,2013-01-27 07:42:00,
2013-01-27 02:52:00,17.0,14.0,30.51,SW,219,0.0,0.0,89,0.00,,,0.00,,2013-01-27 07:52:00,
2013-01-27 03:02:00,17.0,14.0,30.52,SW,219,0.0,1.0,89,0.00,,,0.00,,2013-01-27 08:02:00,
2013-01-27 03:12:00,17.0,14.0,30.52,SW,219,0.0,1.0,89,0.00,,,0.00,,2013-01-27 08:12:00,
2013-01-27 03:22:00,16.0,14.0,30.51,SW,219,0.0,0.0,90,0.00,,,0.00,,2013-01-27 08:22:00,
2013-01-27 03:32:00,15.0,13.0,30.51,SW,219,0.0,0.0,90,0.00,,,0.00,,2013-01-27 08:32:00,
2013-01-27 03:42:00,15.0,13.0,30.51,SW,219,0.0,0.0,90,0.00,,,0.00,,2013-01-27 08:42:00,
2013-01-27 03:52:00,15.0,13.0,30.50,SW,219,0.0,0.0,91,0.00,,,0.00,,2013-01-27 08:52:00,
2013-01-27 04:03:00,14.0,12.0,30.49,SW,219,0.0,0.0,92,0.00,,,0.00,,2013-01-27 09:03:00,
2013-01-27 04:11:00,14.0,12.0,30.49,SW,219,0.0,0.0,92,0.00,,,0.00,,2013-01-27 09:11:00,
2013-01-27 04:21:00,14.0,12.0,30.49,SW,219,0.0,0.0,92,0.00,,,0.00,,2013-01-27 09:21:00,
2013-01-27 04:32:00,15.0,13.0,30.49,SW,219,0.0,0.0,92,0.00,,,0.00,,2013-01-27 09:32:00,
2013-01-27 04:42:00,15.0,13.0,30.49,SW,219,0.0,0.0,92,0.00,,,0.00,,2013-01-27 09:42:00,
2013-01-27 04:51:00,14.0,12.0,30.50,SW,219,0.0,0.0,91,0.00,,,0.00,,2013-01-27 09:51:00,
2013-01-27 05:01:00,13.0,11.0,30.50,SW,219,0.0,0.0,91,0.00,,,0.00,,2013-01-27 10:01:00,
2013-01-27 05:11:00,13.0,11.0,30.52,SW,219,0.0,0.0,91,0.00,,,0.00,,2013-01-27 10:11:00,
2013-01-27 05:21:00,13.0,11.0,30.52,SW,219,0.0,0.0,91,0.00,,,0.00,,2013-01-27 10:21:00,
2013-01-27 05:32:00,12.0,10.0,30.52,SW,219,0.0,0.0,91,0.00,,,0.00,,2013-01-27 10:32:00,
2013-01-27 05:42:00,12.0,10.0,30.52,SW,219,0.0,0.0,91,0.00,,,0.00,,2013-01-27 10:42:00,
2013-01-27 05:51:00,12.0,10.0,30.51,SW,219,0.0,0.0,91,0.00,,,0.00,,2013-01-27 10:51:00,
2013-01-27 06:01:00,12.0,10.0,30.52,SW,219,0.0,0.0,92,0.00,,,0.00,,2013-01-27 11:01:00,
2013-01-27 06:11:00,12.0,10.0,30.52,SW,219,0.0,0.0,92,0.00,,,0.00,,2013-01-27 11:11:00,
2013-01-27 06:22:00,12.0,10.0,30.52,SW,219,0.0,0.0,92,0.00,,,0.00,,2013-01-27 11:22:00,
2013-01-27 06:32:00,11.0,9.0,30.53,SW,219,0.0,0.0,92,0.00,,,0.00,,2013-01-27 11:32:00,
2013-01-27 06:42:00,11.0,9.0,30.53,SW,219,0.0,0.0,92,0.00,,,0.00,,2013-01-27 11:42:00,
2013-01-27 06:52:00,11.0,9.0,30.52,SW,219,0.0,0.0,92,0.00,,,0.00,,2013-01-27 11:52:00,
2013-01-27 07:02:00,11.0,9.0,30.52,SW,219,0.0,1.0,92,0.00,,,0.00,,2013-01-27 12:02:00,
2013-01-27 07:12:00,11.0,9.0,30.52,SW,219,0.0,1.0,92,0.00,,,0.00,,2013-01-27 12:12:00,
2013-01-27 07:22:00,11.0,9.0,30.53,SW,219,0.0,0.0,92,0.00,,,0.00,,2013-01-27 12:22:00,
2013-01-27 07:32:00,11.0,9.0,30.52,SW,219,0.0,1.0,92,0.00,,,0.00,,2013-01-27 12:32:00,
2013-01-27 07:42:00,11.0,9.0,30.52,SW,219,0.0,1.0,92,0.00,,,0.00,,2013-01-27 12:42:00,
2013-01-27 07:52:00,10.0,8.0,30.53,SW,219,0.0,0.0,91,0.00,,,0.00,,2013-01-27 12:52:00,
2013-01-27 08:02:00,10.0,8.0,30.53,SW,219,0.0,0.0,92,0.00,,,0.00,,2013-01-27 13:02:00,
2013-01-27 08:11:00,10.0,8.0,30.53,SW,219,0.0,0.0,92,0.00,,,0.00,,2013-01-27 13:11:00,
2013-01-27 08:22:00,10.0,8.0,30.54,SW,219,0.0,0.0,92,0.00,,,0.00,,2013-01-27 13:22:00,
2013-01-27 08:32:00,10.0,8.0,30.54,SW,219,0.0,0.0,92,0.00,,,0.00,,2013-01-27 13:32:00,
2013-01-27 08:42:00,10.0,8.0,30.54,SW,219,0.0,0.0,92,0.00,,,0.00,,2013-01-27 13:42:00,
2013-01-27 08:52:00,12.0,10.0,30.54,SW,218,0.0,0.0,92,0.00,,,0.00,,2013-01-27 13:52:00,
2013-01-27 09:02:00,12.0,10.0,30.54,SW,215,0.0,1.0,91,0.00,,,0.00,,2013-01-27 14:02:00,
2013-01-27 09:12:00,12.0,10.0,30.54,SW,215,0.0,1.0,91,0.00,,,0.00,,2013-01-27 14:12:00,
2013-01-27 09:22:00,16.0,14.0,30.55,SSE,155,0.0,1.0,93,0.00,,,0.00,,2013-01-27 14:22:00,
2013-01-27 09:33:00,16.0,13.0,30.54,SSE,155,0.0,0.0,89,0.00,,,0.00,,2013-01-27 14:33:00,
2013-01-27 09:43:00,16.0,13.0,30.54,SSE,155,0.0,0.0,89,0.00,,,0.00,,2013-01-27 14:43:00,
2013-01-27 09:52:00,17.0,14.0,30.54,SSE,155,0.0,1.0,88,0.00,,,0.00,,2013-01-27 14:52:00,
2013-01-27 10:02:00,20.0,16.0,30.55,SE,136,2.0,4.0,86,0.00,,,0.00,,2013-01-27 15:02:00,
2013-01-27 10:12:00,20.0,16.0,30.55,SE,136,2.0,4.0,86,0.00,,,0.00,,2013-01-27 15:12:00,
2013-01-27 10:22:00,21.0,16.0,30.54,SSE,159,6.0,10.0,79,0.00,,,0.00,,2013-01-27 15:22:00,
2013-01-27 10:32:00,21.0,15.0,30.55,SSE,154,5.0,10.0,78,0.00,,,0.00,,2013-01-27 15:32:00,
2013-01-27 10:42:00,21.0,15.0,30.55,SSE,154,5.0,10.0,78,0.00,,,0.00,,2013-01-27 15:42:00,
2013-01-27 10:52:00,22.0,16.0,30.54,South,172,6.0,11.0,78,0.00,,,0.00,,2013-01-27 15:52:00,
2013-01-27 11:03:00,22.0,16.0,30.54,SSE,157,6.0,12.0,76,0.00,,,0.00,,2013-01-27 16:03:00,
2013-01-27 11:12:00,22.0,16.0,30.54,SSE,157,6.0,12.0,76,0.00,,,0.00,,2013-01-27 16:12:00,
2013-01-27 11:22:00,23.0,16.0,30.53,SSE,148,6.0,11.0,75,0.00,,,0.00,,2013-01-27 16:22:00,
2013-01-27 11:32:00,24.0,17.0,30.53,East,90,3.0,11.0,73,0.00,,,0.00,,2013-01-27 16:32:00,
2013-01-27 11:42:00,24.0,17.0,30.53,East,90,3.0,11.0,73,0.00,,,0.00,,2013-01-27 16:42:00,
2013-01-27 11:52:00,25.0,17.0,30.53,SSE,162,5.0,13.0,72,0.00,,,0.00,,2013-01-27 16:52:00,
2013-01-27 12:02:00,25.0,17.0,30.52,South,190,5.0,13.0,71,0.00,,,0.00,,2013-01-27 17:02:00,
2013-01-27 12:12:00,25.0,17.0,30.52,South,190,5.0,13.0,71,0.00,,,0.00,,2013-01-27 17:12:00,
2013-01-27 12:22:00,26.0,18.0,30.51,SSE,153,3.0,9.0,70,0.00,,,0.00,,2013-01-27 17:22:00,
2013-01-27 12:32:00,26.0,17.0,30.52,South,172,6.0,10.0,67,0.00,,,0.00,,2013-01-27 17:32:00,
2013-01-27 12:42:00,26.0,17.0,30.52,South,172,6.0,10.0,67,0.00,,,0.00,,2013-01-27 17:42:00,
2013-01-27 12:52:00,27.0,18.0,30.52,South,183,2.0,11.0,68,0.00,,,0.00,,2013-01-27 17:52:00,
2013-01-27 13:03:00,27.0,18.0,30.51,SSE,153,3.0,9.0,68,0.00,,,0.00,,2013-01-27 18:03:00,
2013-01-27 13:12:00,27.0,18.0,30.51,SSE,153,3.0,9.0,68,0.00,,,0.00,,2013-01-27 18:12:00,
2013-01-27 13:23:00,27.0,18.0,30.50,SSE,159,4.0,8.0,68,0.00,,,0.00,,2013-01-27 18:23:00,
2013-01-27 13:32:00,27.0,18.0,30.50,SE,138,3.0,9.0,67,0.00,,,0.00,,2013-01-27 18:32:00,
2013-01-27 13:42:00,27.0,18.0,30.50,SE,138,3.0,9.0,67,0.00,,,0.00,,2013-01-27 18:42:00,
2013-01-27 13:52:00,27.0,17.0,30.49,SSE,159,3.0,8.0,66,0.00,,,0.00,,2013-01-27 18:52:00,
2013-01-27 14:02:00,27.0,17.0,30.47,NE,49,3.0,8.0,66,0.00,,,0.00,,2013-01-27 19:02:00,
2013-01-27 14:12:00,27.0,17.0,30.47,NE,49,3.0,8.0,66,0.00,,,0.00,,2013-01-27 19:12:00,
2013-01-27 14:22:00,27.0,17.0,30.47,SE,141,3.0,9.0,66,0.00,,,0.00,,2013-01-27 19:22:00,
2013-01-27 14:33:00,27.0,17.0,30.46,SSE,158,5.0,10.0,66,0.00,,,0.00,,2013-01-27 19:33:00,
2013-01-27 14:42:00,27.0,17.0,30.46,SSE,158,5.0,10.0,66,0.00,,,0.00,,2013-01-27 19:42:00,
2013-01-27 14:52:00,28.0,18.0,30.46,SSE,147,5.0,9.0,66,0.00,,,0.00,,2013-01-27 19:52:00,
2013-01-27 15:03:00,28.0,18.0,30.45,SSE,155,5.0,10.0,66,0.00,,,0.00,,2013-01-27 20:03:00,
2013-01-27 15:12:00,28.0,18.0,30.45,SSE,155,5.0,10.0,66,0.00,,,0.00,,2013-01-27 20:12:00,
2013-01-27 15:22:00,28.0,18.0,30.45,SSE,153,2.0,9.0,66,0.00,,,0.00,,2013-01-27 20:22:00,
2013-01-27 15:33:00,28.0,18.0,30.45,SSE,162,2.0,6.0,66,0.00,,,0.00,,2013-01-27 20:33:00,
2013-01-27 15:42:00,28.0,18.0,30.45,SSE,162,2.0,6.0,66,0.00,,,0.00,,2013-01-27 20:42:00,
2013-01-27 15:52:00,28.0,18.0,30.45,SE,134,2.0,6.0,66,0.00,,,0.00,,2013-01-27 20:52:00,
2013-01-27 16:02:00,29.0,19.0,30.43,ESE,117,1.0,9.0,65,0.00,,,0.00,,2013-01-27 21:02:00,
2013-01-27 16:12:00,29.0,19.0,30.43,ESE,117,1.0,9.0,65,0.00,,,0.00,,2013-01-27 21:12:00,
2013-01-27 16:22:00,29.0,18.0,30.43,SE,146,2.0,6.0,64,0.00,,,0.00,,2013-01-27 21:22:00,
2013-01-27 16:33:00,29.0,18.0,30.43,East,100,2.0,7.0,64,0.00,,,0.00,,2013-01-27 21:33:00,
2013-01-27 16:42:00,29.0,18.0,30.43,East,100,2.0,7.0,64,0.00,,,0.00,,2013-01-27 21:42:00,
2013-01-27 16:52:00,29.0,19.0,30.42,SSE,155,4.0,8.0,65,0.00,,,0.00,,2013-01-27 21:52:00,
2013-01-27 17:03:00,29.0,19.0,30.40,SSE,152,4.0,10.0,65,0.00,,,0.00,,2013-01-27 22:03:00,
2013-01-27 17:12:00,29.0,19.0,30.40,SSE,152,4.0,10.0,65,0.00,,,0.00,,2013-01-27 22:12:00,
2013-01-27 17:22:00,29.0,19.0,30.39,SSE,150,3.0,9.0,66,0.00,,,0.00,,2013-01-27 22:22:00,
2013-01-27 17:32:00,28.0,18.0,30.39,SSE,151,4.0,9.0,67,0.00,,,0.00,,2013-01-27 22:32:00,
2013-01-27 17:42:00,28.0,18.0,30.39,SSE,151,4.0,9.0,67,0.00,,,0.00,,2013-01-27 22:42:00,
2013-01-27 17:52:00,28.0,19.0,30.40,SSE,168,2.0,9.0,68,0.00,,,0.00,,2013-01-27 22:52:00,
2013-01-27 18:02:00,28.0,19.0,30.40,SE,140,5.0,13.0,69,0.00,,,0.00,,2013-01-27 23:02:00,
2013-01-27 18:12:00,28.0,19.0,30.40,SE,140,5.0,13.0,69,0.00,,,0.00,,2013-01-27 23:12:00,
2013-01-27 18:22:00,27.0,18.0,30.40,SE,142,5.0,8.0,69,0.00,,,0.00,,2013-01-27 23:22:00,
2013-01-27 18:32:00,28.0,19.0,30.40,South,169,4.0,9.0,69,0.00,,,0.00,,2013-01-27 23:32:00,
2013-01-27 18:42:00,28.0,19.0,30.40,South,169,4.0,9.0,69,0.00,,,0.00,,2013-01-27 23:42:00,
2013-01-27 18:52:00,28.0,20.0,30.40,SE,127,2.0,10.0,70,0.00,,,0.00,,2013-01-27 23:52:00,
2013-01-27 19:02:00,28.0,19.0,30.40,SE,140,5.0,10.0,69,0.00,,,0.00,,2013-01-28 00:02:00,
2013-01-27 19:12:00,28.0,19.0,30.40,SE,140,5.0,10.0,69,0.00,,,0.00,,2013-01-28 00:12:00,
2013-01-27 19:22:00,28.0,20.0,30.41,SSE,162,4.0,9.0,70,0.00,,,0.00,,2013-01-28 00:22:00,
2013-01-27 19:33:00,28.0,20.0,30.40,SE,140,5.0,9.0,70,0.00,,,0.00,,2013-01-28 00:33:00,
2013-01-27 19:42:00,28.0,20.0,30.40,SE,140,5.0,9.0,70,0.00,,,0.00,,2013-01-28 00:42:00,
2013-01-27 19:51:00,28.0,20.0,30.40,SSE,149,5.0,12.0,70,0.00,,,0.00,,2013-01-28 00:51:00,
2013-01-27 20:02:00,28.0,20.0,30.40,SSE,148,4.0,11.0,70,0.00,,,0.00,,2013-01-28 01:02:00,
2013-01-27 20:11:00,28.0,20.0,30.40,SSE,148,4.0,11.0,70,0.00,,,0.00,,2013-01-28 01:11:00,
2013-01-27 20:22:00,28.0,20.0,30.39,South,171,5.0,10.0,70,0.00,,,0.00,,2013-01-28 01:22:00,
2013-01-27 20:33:00,28.0,20.0,30.39,South,180,5.0,11.0,70,0.00,,,0.00,,2013-01-28 01:33:00,
2013-01-27 20:42:00,28.0,20.0,30.39,South,180,5.0,11.0,70,0.00,,,0.00,,2013-01-28 01:42:00,
2013-01-27 20:52:00,29.0,20.0,30.38,SE,142,5.0,13.0,70,0.00,,,0.00,,2013-01-28 01:52:00,
2013-01-27 21:02:00,29.0,20.0,30.37,SSE,159,5.0,12.0,70,0.00,,,0.00,,2013-01-28 02:02:00,
2013-01-27 21:11:00,29.0,20.0,30.37,SSE,159,5.0,12.0,70,0.00,,,0.00,,2013-01-28 02:11:00,
2013-01-27 21:22:00,28.0,20.0,30.36,SSE,158,7.0,13.0,73,0.00,,,0.00,,2013-01-28 02:22:00,
2013-01-27 21:32:00,28.0,21.0,30.36,SSE,167,6.0,10.0,76,0.00,,,0.00,,2013-01-28 02:32:00,
2013-01-27 21:42:00,28.0,21.0,30.36,SSE,167,6.0,10.0,76,0.00,,,0.00,,2013-01-28 02:42:00,
2013-01-27 21:52:00,28.0,22.0,30.37,SSE,163,4.0,11.0,78,0.00,,,0.00,,2013-01-28 02:52:00,
2013-01-27 22:02:00,28.0,23.0,30.38,SE,132,7.0,12.0,81,0.00,,,0.00,,2013-01-28 03:02:00,
2013-01-27 22:12:00,28.0,23.0,30.38,SE,132,7.0,12.0,81,0.00,,,0.00,,2013-01-28 03:12:00,
2013-01-27 22:22:00,27.0,23.0,30.37,SSE,150,7.0,13.0,83,0.00,,,0.00,,2013-01-28 03:22:00,
2013-01-27 22:32:00,27.0,24.0,30.36,SSE,153,4.0,12.0,87,0.00,,,0.00,,2013-01-28 03:32:00,
2013-01-27 22:42:00,27.0,24.0,30.36,SSE,153,4.0,12.0,87,0.00,,,0.00,,2013-01-28 03:42:00,
2013-01-27 22:52:00,26.0,24.0,30.33,SE,134,5.0,11.0,91,0.00,,,0.00,,2013-01-28 03:52:00,
2013-01-27 23:02:00,26.0,24.0,30.33,SE,145,4.0,10.0,92,0.00,,,0.00,,2013-01-28 04:02:00,
2013-01-27 23:12:00,26.0,24.0,30.33,SE,145,4.0,10.0,92,0.00,,,0.00,,2013-01-28 04:12:00,
2013-01-27 23:22:00,27.0,25.0,30.29,ESE,113,4.0,12.0,93,0.00,,,0.00,,2013-01-28 04:22:00,
2013-01-27 23:32:00,27.0,25.0,30.29,East,99,6.0,11.0,93,0.00,,,0.00,,2013-01-28 04:32:00,
2013-01-27 23:42:00,27.0,25.0,30.29,East,99,6.0,11.0,93,0.00,,,0.00,,2013-01-28 04:42:00,
2013-01-27 23:52:00,27.0,25.0,30.28,SE,135,5.0,12.0,93,0.00,,,0.00,,2013-01-28 04:52:00,